This is the latest recevied weather packets stored in our database for station/object YF9UAG-15. If no packets are shown the sender has not sent any weather packets the latest 1 day(s).
| Time | Temp. | Humidity | Pressure | Rain* | Wind** | Luminosity | Snow |
|---|---|---|---|---|---|---|---|
| 1778035328 | 34.44° C | 71% | 1005.4 hPa | - | - | - | - |
| 1778035086 | 33.89° C | 72% | 1005.5 hPa | - | - | - | - |
| 1778034965 | 34.44° C | 74% | 1005.5 hPa | - | - | - | - |
| 1778034481 | 34.44° C | 71% | 1005.7 hPa | - | - | - | - |
| 1778034119 | 34.44° C | 71% | 1005.8 hPa | - | - | - | - |
| 1778033998 | 34.44° C | 71% | 1005.9 hPa | - | - | - | - |
| 1778033877 | 34.44° C | 70% | 1005.9 hPa | - | - | - | - |
| 1778033756 | 33.89° C | 71% | 1006 hPa | - | - | - | - |
| 1778033635 | 33.89° C | 73% | 1006 hPa | - | - | - | - |
| 1778033514 | 33.89° C | 72% | 1006 hPa | - | - | - | - |
| 1778033393 | 33.89° C | 74% | 1006 hPa | - | - | - | - |
| 1778033272 | 33.89° C | 74% | 1006.2 hPa | - | - | - | - |
| 1778033151 | 33.89° C | 74% | 1006.2 hPa | - | - | - | - |
| 1778033030 | 33.89° C | 73% | 1006.2 hPa | - | - | - | - |
| 1778032667 | 34.44° C | 75% | 1006.3 hPa | - | - | - | - |
| 1778032546 | 33.89° C | 75% | 1006.4 hPa | - | - | - | - |
| 1778032304 | 34.44° C | 76% | 1006.4 hPa | - | - | - | - |
| 1778032184 | 33.89° C | 74% | 1006.4 hPa | - | - | - | - |
| 1778032063 | 33.89° C | 75% | 1006.5 hPa | - | - | - | - |
| 1778031942 | 33.89° C | 77% | 1006.5 hPa | - | - | - | - |
| 1778031821 | 33.89° C | 78% | 1006.6 hPa | - | - | - | - |
| 1778031700 | 33.89° C | 78% | 1006.8 hPa | - | - | - | - |
| 1778031579 | 33.89° C | 77% | 1006.6 hPa | - | - | - | - |
| 1778031458 | 33.89° C | 77% | 1006.6 hPa | - | - | - | - |
| 1778031337 | 33.89° C | 80% | 1006.7 hPa | - | - | - | - |
* Rain since midnight (hover to see other rain measurements)
** Current wind speed in m/s (hover to see current wind gust speed)